TimeCDT,TemperatureF,Dew PointF,Humidity,Sea Level PressureIn,VisibilityMPH,Wind Direction,Wind SpeedMPH,Gust SpeedMPH,PrecipitationIn,Events,Conditions,WindDirDegrees,DateUTC
12:15 AM,68.4,60.3,75,30.00,10.0,South,5.8,-,N/A,,Clear,170,2013-09-07 05:15:00
12:35 AM,68.4,60.3,75,30.00,10.0,South,6.9,-,N/A,,Clear,180,2013-09-07 05:35:00
12:55 AM,68.0,60.3,76,30.01,10.0,South,6.9,-,N/A,,Clear,180,2013-09-07 05:55:00
1:15 AM,68.2,60.3,76,30.01,10.0,South,6.9,-,N/A,,Clear,180,2013-09-07 06:15:00
1:35 AM,67.1,60.1,78,30.01,10.0,South,5.8,-,N/A,,Clear,190,2013-09-07 06:35:00
1:55 AM,66.2,60.1,81,30.00,10.0,South,8.1,-,N/A,,Clear,170,2013-09-07 06:55:00
2:15 AM,67.1,60.3,79,30.00,10.0,South,6.9,-,N/A,,Clear,180,2013-09-07 07:15:00
2:35 AM,66.4,60.1,80,30.00,10.0,South,6.9,-,N/A,,Clear,180,2013-09-07 07:35:00
2:55 AM,66.0,60.1,81,30.00,10.0,South,6.9,-,N/A,,Clear,180,2013-09-07 07:55:00
3:15 AM,65.8,59.9,81,29.99,10.0,South,8.1,-,N/A,,Clear,180,2013-09-07 08:15:00
3:35 AM,65.5,59.4,81,29.99,10.0,South,5.8,-,N/A,,Clear,180,2013-09-07 08:35:00
3:55 AM,65.5,59.2,80,29.99,10.0,South,5.8,-,N/A,,Clear,190,2013-09-07 08:55:00
4:15 AM,65.5,59.0,80,29.99,10.0,South,6.9,-,N/A,,Clear,180,2013-09-07 09:15:00
4:35 AM,64.9,58.6,80,30.00,10.0,South,6.9,-,N/A,,Clear,180,2013-09-07 09:35:00
4:55 AM,64.9,58.3,79,29.99,10.0,South,6.9,-,N/A,,Clear,180,2013-09-07 09:55:00
5:15 AM,64.4,58.1,80,30.00,10.0,South,5.8,-,N/A,,Clear,190,2013-09-07 10:15:00
5:35 AM,64.6,58.6,81,30.00,10.0,South,4.6,-,N/A,,Clear,190,2013-09-07 10:35:00
5:55 AM,64.9,58.3,79,30.00,10.0,South,6.9,-,N/A,,Clear,180,2013-09-07 10:55:00
6:15 AM,64.6,58.1,79,30.01,10.0,South,4.6,-,N/A,,Clear,170,2013-09-07 11:15:00
6:35 AM,64.0,58.1,81,30.01,10.0,South,4.6,-,N/A,,Clear,180,2013-09-07 11:35:00
6:55 AM,64.2,58.6,82,30.01,10.0,South,4.6,-,N/A,,Clear,190,2013-09-07 11:55:00
7:15 AM,66.2,58.6,77,30.01,10.0,South,5.8,-,N/A,,Clear,190,2013-09-07 12:15:00
7:35 AM,67.3,58.6,74,30.00,10.0,South,8.1,-,N/A,,Clear,190,2013-09-07 12:35:00
7:55 AM,68.2,58.8,72,29.98,10.0,South,9.2,-,N/A,,Clear,190,2013-09-07 12:55:00
8:15 AM,68.9,59.0,71,29.99,10.0,Calm,Calm,-,N/A,,Clear,0,2013-09-07 13:15:00
8:35 AM,69.4,59.5,71,29.99,10.0,SSW,5.8,-,N/A,,Clear,210,2013-09-07 13:35:00
8:55 AM,72.0,59.9,66,29.98,10.0,South,6.9,-,N/A,,Clear,190,2013-09-07 13:55:00
9:15 AM,76.1,59.9,57,29.98,10.0,SSW,9.2,-,N/A,,Clear,210,2013-09-07 14:15:00
9:35 AM,76.8,60.1,56,29.99,10.0,SSW,9.2,-,N/A,,Clear,200,2013-09-07 14:35:00
9:55 AM,79.3,60.8,53,29.99,10.0,SSW,8.1,-,N/A,,Clear,200,2013-09-07 14:55:00
10:15 AM,79.0,60.8,54,30.00,10.0,SW,8.1,-,N/A,,Clear,220,2013-09-07 15:15:00
10:35 AM,81.9,60.8,49,29.99,10.0,SSW,10.4,-,N/A,,Clear,210,2013-09-07 15:35:00
10:55 AM,83.3,61.5,48,29.99,10.0,SSW,9.2,-,N/A,,Clear,200,2013-09-07 15:55:00
11:15 AM,84.7,61.9,46,29.98,10.0,SSW,10.4,-,N/A,,Clear,200,2013-09-07 16:15:00
11:35 AM,86.5,62.2,44,29.98,10.0,SW,10.4,-,N/A,,Clear,230,2013-09-07 16:35:00
11:55 AM,88.0,61.5,41,29.97,10.0,SW,12.7,-,N/A,,Clear,230,2013-09-07 16:55:00
12:15 PM,90.0,61.3,38,29.96,10.0,SW,11.5,17.3,N/A,,Clear,220,2013-09-07 17:15:00
12:35 PM,90.7,61.7,38,29.94,10.0,SW,15.0,-,N/A,,Clear,220,2013-09-07 17:35:00
12:55 PM,89.4,61.2,39,29.93,10.0,SSW,13.8,-,N/A,,Clear,210,2013-09-07 17:55:00
1:15 PM,91.8,60.6,35,29.91,10.0,SSW,17.3,-,N/A,,Clear,210,2013-09-07 18:15:00
1:35 PM,93.0,60.6,34,29.91,10.0,South,10.4,18.4,N/A,,Clear,190,2013-09-07 18:35:00
1:55 PM,94.5,59.4,31,29.90,10.0,South,15.0,-,N/A,,Clear,190,2013-09-07 18:55:00
2:15 PM,95.0,59.0,30,29.89,10.0,SSW,12.7,19.6,N/A,,Clear,200,2013-09-07 19:15:00
2:35 PM,94.5,58.8,30,29.88,10.0,SSW,12.7,20.7,N/A,,Clear,200,2013-09-07 19:35:00
2:55 PM,94.8,58.8,30,29.88,10.0,SSW,10.4,23.0,N/A,,Clear,200,2013-09-07 19:55:00
3:15 PM,95.7,59.2,29,29.88,10.0,SSW,10.4,19.6,N/A,,Clear,200,2013-09-07 20:15:00
3:35 PM,95.7,58.8,29,29.87,10.0,SSW,11.5,19.6,N/A,,Clear,210,2013-09-07 20:35:00
3:55 PM,96.3,59.2,29,29.87,10.0,SSW,11.5,17.3,N/A,,Clear,200,2013-09-07 20:55:00
4:15 PM,95.7,59.4,30,29.87,10.0,SSW,11.5,16.1,N/A,,Clear,200,2013-09-07 21:15:00
4:35 PM,94.6,59.7,31,29.87,10.0,SSW,10.4,-,N/A,,Clear,210,2013-09-07 21:35:00
4:55 PM,94.8,59.4,31,29.87,10.0,SSW,9.2,-,N/A,,Clear,210,2013-09-07 21:55:00
5:15 PM,94.6,60.4,32,29.87,10.0,SSW,6.9,-,N/A,,Clear,210,2013-09-07 22:15:00
5:35 PM,94.3,60.8,33,29.87,10.0,SW,8.1,-,N/A,,Clear,220,2013-09-07 22:35:00
5:55 PM,93.2,60.4,33,29.87,10.0,SSW,6.9,-,N/A,,Clear,200,2013-09-07 22:55:00
6:15 PM,93.0,63.0,37,29.86,10.0,South,5.8,-,N/A,,Clear,180,2013-09-07 23:15:00
6:35 PM,91.4,63.5,39,29.86,10.0,South,5.8,-,N/A,,Clear,180,2013-09-07 23:35:00
6:55 PM,88.9,65.3,45,29.86,10.0,South,5.8,-,N/A,,Clear,180,2013-09-07 23:55:00
7:15 PM,87.4,64.4,46,29.85,10.0,South,6.9,-,N/A,,Clear,180,2013-09-08 00:15:00
7:35 PM,86.0,64.4,48,29.86,10.0,South,5.8,-,N/A,,Clear,170,2013-09-08 00:35:00
7:55 PM,83.7,65.7,54,29.86,10.0,SSE,5.8,-,N/A,,Clear,160,2013-09-08 00:55:00
8:15 PM,83.5,65.7,55,29.87,10.0,South,5.8,-,N/A,,Clear,170,2013-09-08 01:15:00
8:35 PM,83.3,65.5,55,29.87,10.0,South,5.8,-,N/A,Rain,Rain,180,2013-09-08 01:35:00
8:55 PM,82.0,66.6,59,29.87,10.0,South,5.8,-,N/A,,Scattered Clouds,170,2013-09-08 01:55:00
9:35 PM,83.1,64.6,53,29.88,10.0,South,6.9,-,N/A,,Clear,190,2013-09-08 02:35:00
9:55 PM,81.7,65.1,57,29.88,10.0,South,6.9,-,N/A,,Clear,190,2013-09-08 02:55:00
10:15 PM,80.4,65.5,60,29.88,10.0,South,6.9,-,N/A,,Clear,190,2013-09-08 03:15:00
10:35 PM,80.6,65.5,60,29.88,10.0,South,5.8,-,N/A,,Clear,190,2013-09-08 03:35:00
10:55 PM,79.7,65.7,62,29.88,10.0,South,5.8,-,N/A,,Clear,170,2013-09-08 03:55:00
11:15 PM,79.2,65.7,63,29.88,10.0,SSE,5.8,-,N/A,,Clear,160,2013-09-08 04:15:00
11:35 PM,78.8,66.0,65,29.88,10.0,SSE,5.8,-,N/A,,Clear,150,2013-09-08 04:35:00
11:55 PM,79.5,65.5,62,29.88,10.0,SE,4.6,-,N/A,,Clear,140,2013-09-08 04:55:00